User: anonymous   Login
Location: *
(49.7115°N, 15.0136°E)
Time: 06:30:41
(UTC+00:00)
Language:

ARGOS - Orbit

View from above orbital plane
View from above orbital plane
View from above satellite
View from above satellite

Ground track
Ground track

The orbit data is extracted from the following two-line orbital elements,

1 25634U 99008A   20152.61620240 -.00000021  00000-0  98570-5 0  9995
2 25634  98.4627 192.1353 0009578 332.8560  27.2116 14.19373361101580
Epoch (UTC): 31 May 2020 14:47:19
Eccentricity: 0.0009578
inclination: 98.4627°
perigee height: 820 km
apogee height: 834 km
right ascension of ascending node: 192.1353°
argument of perigee: 332.8560°
revolutions per day: 14.19373361
mean anomaly at epoch: 27.2116°
orbit number at epoch: 10158

The dashed part of the orbit path shows where the satellite is in the earth's shadow,  

DLR